Main page
METAR-TAF:

METAR-TAF

Airports :

Lauro Kurtz Airport

Passo Fundo, Rio Grande do Sul, Brazil

latitude: 28-15S, longitude: 052-24W, elevation: 684 m

Current weather observation

The report was made 3 hours and 27 minutes ago, at 21:00 UTC
Calm wind
Temperature 22°C
Humidity 88%
Pressure 1011 hPa
Visibility: 6000 m
Scattered clouds at a height of 800 ft
Broken clouds at a height of 2000 ft
light rain

METAR: SBPF 182100Z 00000KT 6000 -RA SCT008 BKN020 22/20 Q1011

Time: 21:27 (00:27 UTC)


TAF: missing

Weather observations and forecasts of more than 4000 airports (METAR and TAF reports).

The available stations are represented by yellow and red dots on the map.

Hover mouse over dot to see the name of the station.

Then click to see weather observations and forecasts.

To change the map : click on the green buttons with a black cross to zoom in, on the green button with a dash to zoom out, or on the green arrows for adjacent maps.


METAR-TAF: